Weather History for Tekamah, NE

Change the Weather History Date:

Thursday, February 7, 2013

  Actual Average Record
Temperature  
Mean Temperature 34 °F -  
Max Temperature 39 °F 31 °F 57 °F (1954)
Min Temperature 28 °F 12 °F -12 °F (1972)
Degree Days  
Heating Degree Days 30    
Moisture  
Dew Point 27 °F    
Average Humidity 78    
Maximum Humidity 87    
Minimum Humidity 70    
Precipitation  
Precipitation 0.00 in - - ()
Sea Level Pressure  
Sea Level Pressure 30.09 in    
Wind  
Wind Speed 14 mph (North)    
Max Wind Speed 23 mph    
Max Gust Speed 28 mph    
Visibility 4 miles    
Events      
Averages and records for this station are not official NWS values.
T = Trace of Precipitation, MM = Missing Value Source: NWS Daily Summary

Daily Weather History Graph

Daily Weather History Graph

Search for Another Location

Airport:

Trip Planner

Search our weather history database for the weather conditions in past years. The results will help you decide how hot, cold, wet, or windy it might be!

Date:

Astronomy

Feb. 07, 2013 Rise Set
Actual Time 7:30 AM CST 5:48 PM CST
Civil Twilight 7:01 AM CST 6:17 PM CST
Nautical Twilight 6:28 AM CST 6:50 PM CST
Astronomical Twilight 5:55 AM CST 7:22 PM CST
Moon 5:11 AM CST (2/7) 3:12 PM CST (2/7)
Length of Visible Light 11h 16m
Length of Day
10h 18m
Waning Crescent, 9% of the Moon is Illuminated
Feb 7
Waning Crescent
Feb 10
New
Feb 17
First Quarter
Feb 25
Full
Mar 4
Last Quarter

Hourly Weather History & Observations

Time (CST) Temp. Windchill Dew Point Humidity Pressure Visibility Wind Dir Wind Speed Gust Speed Precip Events Conditions
12:54 AM 39.0 °F 33.4 °F 34.0 °F 82% 29.91 in 7.0 mi NNW 8.1 mph - N/A   Overcast
1:33 AM 39.2 °F 35.9 °F 33.8 °F 81% 29.90 in 6.0 mi North 4.6 mph - N/A   Haze
1:54 AM 37.9 °F 34.4 °F 33.1 °F 83% 29.91 in 6.0 mi NNE 4.6 mph - N/A   Haze
2:54 AM 39.0 °F 31.4 °F 32.0 °F 76% 29.93 in 8.0 mi NNW 12.7 mph - N/A   Scattered Clouds
3:54 AM 36.0 °F 29.6 °F 30.9 °F 82% 29.93 in 8.0 mi NNW 8.1 mph - N/A   Clear
4:54 AM 35.1 °F 25.9 °F 30.0 °F 82% 29.94 in 7.0 mi North 13.8 mph - N/A   Clear
5:54 AM 34.0 °F 24.2 °F 30.0 °F 85% 29.97 in 6.0 mi North 15.0 mph - N/A   Clear
6:31 AM 33.8 °F 23.2 °F 30.2 °F 87% 29.99 in 5.0 mi North 17.3 mph - N/A   Mostly Cloudy
6:54 AM 34.0 °F 23.0 °F 30.0 °F 85% 30.01 in 5.0 mi North 18.4 mph - N/A   Overcast
7:19 AM 33.8 °F 21.9 °F 30.2 °F 87% 30.01 in 4.0 mi NNW 21.9 mph - N/A   Overcast
7:54 AM 33.1 °F 21.2 °F 28.9 °F 85% 30.04 in 3.0 mi North 20.7 mph - N/A   Overcast
8:12 AM 33.8 °F 22.8 °F 28.4 °F 81% 30.04 in 2.0 mi North 18.4 mph - N/A   Overcast
8:20 AM 33.8 °F 23.2 °F 28.4 °F 81% 30.04 in 1.8 mi North 17.3 mph - N/A   Overcast
8:54 AM 33.1 °F 22.2 °F 28.9 °F 85% 30.07 in 1.5 mi North 17.3 mph - N/A   Overcast
9:52 AM 33.8 °F 21.6 °F 28.4 °F 81% 30.08 in 2.0 mi North 23.0 mph - N/A   Haze
9:54 AM 33.1 °F 20.9 °F 28.0 °F 82% 30.10 in 2.0 mi North 21.9 mph - N/A   Haze
10:39 AM 32.0 °F 19.5 °F 26.6 °F 80% 30.10 in 1.8 mi NNW 21.9 mph 27.6 mph N/A   Haze
10:54 AM 33.1 °F 21.2 °F 27.0 °F 78% 30.13 in 1.5 mi North 20.7 mph 27.6 mph N/A   Haze
11:23 AM 32.0 °F 20.1 °F 26.6 °F 80% 30.12 in 2.0 mi North 19.6 mph - N/A   Haze
11:45 AM 33.8 °F 22.8 °F 26.6 °F 75% 30.11 in 1.2 mi North 18.4 mph - N/A   Haze
11:54 AM 32.0 °F 19.8 °F 27.0 °F 82% 30.13 in 1.5 mi North 20.7 mph 27.6 mph N/A   Haze
12:54 PM 33.1 °F 21.2 °F 26.1 °F 75% 30.12 in 1.8 mi NNW 20.7 mph - N/A   Haze
1:37 PM 33.8 °F 22.5 °F 26.6 °F 75% 30.11 in 1.5 mi NNW 19.6 mph - N/A   Haze
1:54 PM 33.1 °F 21.5 °F 26.1 °F 75% 30.12 in 1.5 mi North 19.6 mph - N/A   Haze
2:08 PM 33.8 °F 22.2 °F 26.6 °F 75% 30.10 in 2.5 mi NNW 20.7 mph 26.5 mph N/A   Haze
2:44 PM 33.8 °F 22.5 °F 24.8 °F 70% 30.11 in 3.0 mi North 19.6 mph - N/A   Haze
2:54 PM 33.1 °F 20.9 °F 25.0 °F 72% 30.13 in 2.0 mi North 21.9 mph - N/A   Haze
3:50 PM 33.8 °F 22.5 °F 24.8 °F 70% 30.13 in 3.0 mi North 19.6 mph - N/A   Haze
3:54 PM 33.1 °F 20.9 °F 25.0 °F 72% 30.15 in 2.5 mi North 21.9 mph - N/A   Haze
4:28 PM 33.8 °F 22.5 °F 24.8 °F 70% 30.14 in 3.0 mi North 19.6 mph - N/A   Haze
4:42 PM 33.8 °F 23.9 °F 24.8 °F 70% 30.14 in 2.5 mi NNW 15.0 mph - N/A   Haze
4:49 PM 33.8 °F 23.2 °F 24.8 °F 70% 30.14 in 3.0 mi NNW 17.3 mph - N/A   Haze
4:54 PM 33.1 °F 22.2 °F 24.1 °F 70% 30.17 in 3.0 mi North 17.3 mph - N/A   Haze
5:54 PM 32.0 °F 20.1 °F 24.1 °F 73% 30.19 in 7.0 mi North 19.6 mph - N/A   Overcast
6:54 PM 32.0 °F 21.6 °F 24.1 °F 73% 30.22 in 7.0 mi North 15.0 mph - N/A   Overcast
7:54 PM 30.9 °F 20.2 °F 23.0 °F 72% 30.23 in 7.0 mi North 15.0 mph - N/A   Overcast
8:54 PM 30.9 °F 21.2 °F 23.0 °F 72% 30.25 in 6.0 mi North 12.7 mph - N/A   Haze
9:54 PM 30.9 °F 21.7 °F 23.0 °F 72% 30.27 in 9.0 mi NNW 11.5 mph - N/A   Overcast
10:54 PM 30.0 °F 21.7 °F 23.0 °F 75% 30.27 in 9.0 mi NNW 9.2 mph - N/A   Overcast
11:54 PM 28.0 °F 20.0 °F 23.0 °F 81% 30.27 in 5.0 mi NNE 8.1 mph - N/A   Haze